TimeCDT,TemperatureF,Dew PointF,Humidity,Sea Level PressureIn,VisibilityMPH,Wind Direction,Wind SpeedMPH,Gust SpeedMPH,PrecipitationIn,Events,Conditions,WindDirDegrees,DateUTC
12:15 AM,64.4,32.0,30,30.16,7.0,Calm,Calm,-,N/A,,Clear,0,2013-06-23 05:15:00
12:35 AM,64.4,32.0,30,30.15,9.0,Calm,Calm,-,N/A,,Clear,0,2013-06-23 05:35:00
12:55 AM,64.4,32.0,30,30.14,10.0,Calm,Calm,-,N/A,,Clear,0,2013-06-23 05:55:00
1:15 AM,64.4,32.0,30,30.13,10.0,Calm,Calm,-,N/A,,Clear,0,2013-06-23 06:15:00
1:35 AM,64.4,32.0,30,30.12,9.0,Calm,Calm,-,N/A,,Clear,0,2013-06-23 06:35:00
1:55 AM,64.4,32.0,30,30.12,6.0,Calm,Calm,-,N/A,,Clear,0,2013-06-23 06:55:00
2:15 AM,62.6,32.0,32,30.12,1.5,Calm,Calm,-,N/A,,Clear,0,2013-06-23 07:15:00
2:35 AM,62.6,32.0,32,30.12,9.0,Calm,Calm,-,N/A,,Clear,0,2013-06-23 07:35:00
2:55 AM,62.6,32.0,32,30.12,8.0,Calm,Calm,-,N/A,,Clear,0,2013-06-23 07:55:00
3:15 AM,62.6,32.0,32,30.11,9.0,Calm,Calm,-,N/A,,Clear,0,2013-06-23 08:15:00
3:35 AM,62.6,32.0,32,30.11,8.0,Calm,Calm,-,N/A,,Clear,0,2013-06-23 08:35:00
3:55 AM,62.6,32.0,32,30.12,7.0,Calm,Calm,-,N/A,,Clear,0,2013-06-23 08:55:00
4:15 AM,62.6,32.0,32,30.13,4.0,Calm,Calm,-,N/A,,Clear,0,2013-06-23 09:15:00
4:35 AM,62.6,32.0,32,30.14,5.0,Calm,Calm,-,N/A,,Clear,0,2013-06-23 09:35:00
4:55 AM,62.6,32.0,32,30.14,7.0,Calm,Calm,-,N/A,,Partly Cloudy,0,2013-06-23 09:55:00
5:15 AM,62.6,32.0,32,30.16,7.0,Calm,Calm,-,N/A,,Mostly Cloudy,0,2013-06-23 10:15:00
5:35 AM,62.6,32.0,32,30.17,6.0,Calm,Calm,-,N/A,,Scattered Clouds,0,2013-06-23 10:35:00
5:55 AM,62.6,32.0,32,30.18,4.0,Calm,Calm,-,N/A,,Clear,0,2013-06-23 10:55:00
6:15 AM,64.4,32.0,30,30.18,6.0,Calm,Calm,-,N/A,,Clear,0,2013-06-23 11:15:00
6:35 AM,64.4,32.0,30,30.19,8.0,Calm,Calm,-,N/A,,Clear,0,2013-06-23 11:35:00
6:55 AM,66.2,32.0,28,30.19,8.0,Calm,Calm,-,N/A,,Clear,0,2013-06-23 11:55:00
7:15 AM,68.0,32.0,26,30.19,10.0,Calm,Calm,-,N/A,,Clear,0,2013-06-23 12:15:00
7:35 AM,71.6,32.0,23,30.20,10.0,Calm,Calm,-,N/A,,Clear,0,2013-06-23 12:35:00
7:55 AM,73.4,32.0,22,30.20,10.0,Calm,Calm,-,N/A,,Clear,0,2013-06-23 12:55:00
8:15 AM,73.4,32.0,22,30.21,10.0,South,5.8,-,N/A,,Clear,170,2013-06-23 13:15:00
8:35 AM,75.2,32.0,21,30.21,10.0,South,6.9,-,N/A,,Clear,180,2013-06-23 13:35:00
8:55 AM,75.2,32.0,21,30.22,10.0,SSE,5.8,-,N/A,,Partly Cloudy,160,2013-06-23 13:55:00
9:15 AM,75.2,32.0,21,30.22,10.0,South,5.8,-,N/A,,Mostly Cloudy,170,2013-06-23 14:15:00
9:35 AM,78.8,32.0,18,30.22,10.0,Variable,4.6,-,N/A,,Scattered Clouds,0,2013-06-23 14:35:00
9:55 AM,77.0,32.0,19,30.22,10.0,Variable,4.6,-,N/A,,Mostly Cloudy,0,2013-06-23 14:55:00
10:15 AM,78.8,32.0,18,30.21,10.0,SW,3.5,-,N/A,,Scattered Clouds,220,2013-06-23 15:15:00
10:35 AM,78.8,32.0,18,30.20,5.0,South,4.6,-,N/A,,Clear,190,2013-06-23 15:35:00
10:55 AM,80.6,32.0,17,30.20,5.0,SW,4.6,-,N/A,,Clear,230,2013-06-23 15:55:00
11:15 AM,82.4,32.0,16,30.19,5.0,Variable,4.6,-,N/A,,Clear,0,2013-06-23 16:15:00
11:35 AM,82.4,32.0,16,30.18,6.0,SW,6.9,-,N/A,,Scattered Clouds,220,2013-06-23 16:35:00
11:55 AM,80.6,32.0,17,30.18,5.0,SE,6.9,-,N/A,,Partly Cloudy,140,2013-06-23 16:55:00
12:15 PM,82.4,32.0,16,30.17,5.0,Variable,5.8,-,N/A,,Clear,0,2013-06-23 17:15:00
12:35 PM,80.6,32.0,17,30.18,7.0,SW,11.5,-,N/A,,Scattered Clouds,230,2013-06-23 17:35:00
12:55 PM,75.2,32.0,21,30.18,9.0,WSW,5.8,-,N/A,,Scattered Clouds,240,2013-06-23 17:55:00
1:15 PM,77.0,32.0,19,30.16,10.0,Calm,Calm,-,N/A,,Clear,0,2013-06-23 18:15:00
1:35 PM,80.6,32.0,17,30.16,10.0,Calm,Calm,-,N/A,,Clear,0,2013-06-23 18:35:00
1:55 PM,80.6,32.0,17,30.16,5.0,NE,3.5,-,N/A,,Clear,50,2013-06-23 18:55:00
2:15 PM,80.6,32.0,17,30.15,5.0,Calm,Calm,-,N/A,,Clear,0,2013-06-23 19:15:00
2:35 PM,80.6,32.0,17,30.15,6.0,Calm,Calm,-,N/A,,Clear,0,2013-06-23 19:35:00
2:55 PM,80.6,32.0,17,30.15,6.0,Calm,Calm,-,N/A,,Clear,0,2013-06-23 19:55:00
3:15 PM,82.4,32.0,16,30.14,5.0,ESE,3.5,-,N/A,,Clear,110,2013-06-23 20:15:00
3:35 PM,82.4,32.0,16,30.14,6.0,East,6.9,-,N/A,,Clear,100,2013-06-23 20:35:00
3:55 PM,82.4,32.0,16,30.14,10.0,SE,3.5,-,N/A,,Clear,140,2013-06-23 20:55:00
4:15 PM,82.4,32.0,16,30.13,10.0,Variable,3.5,-,N/A,,Clear,0,2013-06-23 21:15:00
4:35 PM,82.4,32.0,16,30.12,10.0,Calm,Calm,-,N/A,,Clear,0,2013-06-23 21:35:00
4:55 PM,82.4,32.0,16,30.11,7.0,Calm,Calm,-,N/A,,Clear,0,2013-06-23 21:55:00
5:15 PM,82.4,32.0,16,30.11,7.0,SE,3.5,-,N/A,,Clear,130,2013-06-23 22:15:00
5:35 PM,80.6,32.0,17,30.11,6.0,SE,4.6,-,N/A,,Partly Cloudy,130,2013-06-23 22:35:00
5:55 PM,80.6,32.0,17,30.11,6.0,SE,3.5,-,N/A,,Clear,140,2013-06-23 22:55:00
6:15 PM,80.6,32.0,17,30.11,8.0,Calm,Calm,-,N/A,,Clear,0,2013-06-23 23:15:00
6:35 PM,80.6,32.0,17,30.11,9.0,ESE,5.8,-,N/A,,Clear,120,2013-06-23 23:35:00
6:55 PM,78.8,32.0,18,30.11,10.0,SSE,3.5,-,N/A,,Clear,160,2013-06-23 23:55:00
7:15 PM,78.8,32.0,18,30.12,10.0,Calm,Calm,-,N/A,,Clear,0,2013-06-24 00:15:00
7:35 PM,78.8,32.0,18,30.12,10.0,Calm,Calm,-,N/A,,Mostly Cloudy,0,2013-06-24 00:35:00
7:55 PM,77.0,32.0,19,30.12,10.0,Calm,Calm,-,N/A,,Mostly Cloudy,0,2013-06-24 00:55:00
8:15 PM,75.2,32.0,21,30.13,10.0,East,3.5,-,N/A,,Scattered Clouds,100,2013-06-24 01:15:00
8:35 PM,73.4,32.0,22,30.13,10.0,SE,4.6,-,N/A,,Partly Cloudy,130,2013-06-24 01:35:00
8:55 PM,73.4,32.0,22,30.14,10.0,SE,5.8,-,N/A,,Clear,140,2013-06-24 01:55:00
9:15 PM,73.4,32.0,22,30.15,10.0,SE,4.6,-,N/A,,Clear,130,2013-06-24 02:15:00
9:35 PM,73.4,32.0,22,30.15,10.0,SSE,3.5,-,N/A,,Clear,160,2013-06-24 02:35:00
9:55 PM,71.6,32.0,23,30.16,10.0,Calm,Calm,-,N/A,,Clear,0,2013-06-24 02:55:00
10:15 PM,69.8,32.0,25,30.17,10.0,Calm,Calm,-,N/A,,Clear,0,2013-06-24 03:15:00
10:35 PM,69.8,32.0,25,30.17,10.0,Calm,Calm,-,N/A,,Clear,0,2013-06-24 03:35:00
10:55 PM,68.0,32.0,26,30.17,10.0,Calm,Calm,-,N/A,,Clear,0,2013-06-24 03:55:00
11:15 PM,68.0,32.0,26,30.17,10.0,Calm,Calm,-,N/A,,Clear,0,2013-06-24 04:15:00
11:35 PM,66.2,32.0,28,30.17,10.0,Calm,Calm,-,N/A,,Clear,0,2013-06-24 04:35:00
11:55 PM,66.2,32.0,28,30.16,10.0,Calm,Calm,-,N/A,,Clear,0,2013-06-24 04:55:00